Theta_e
318 318 317 316 314 312 311 310 310 311 311 312 311 311 310 310 310 310 309 308 306 304 303 302 302 300 299
312 313 314 313 311 310 309 308 308 308 307 307 307 307 307 306 306 306 304 303 302 301 300 300 300 298 297
310 311 311 310 308 306 306 306 305 305 304 304 304 304 302 302 303 302 301 300 300 300 299 297 296 296 296
307 308 307 306 304 305 303 302 302 302 301 301 300 300 300 300 300 299 299 298 297 296 294 291 291 294 295
303 304 303 303 303 303 302 302 299 299 299 299 298 298 298 297 296 296 296 295 293 292 290 288 288 294 294
301 301 302 302 302 301 299 296 295 298 298 297 296 296 296 295 294 293 293 292 291 289 290 291 292 293 293
298 299 299 300 300 300 298 297 297 297 294 294 294 293 293 292 290 289 288 289 288 289 291 292 292 292 292
296 296 297 298 298 298 298 296 296 296 294 291 291 291 290 290 288 287 288 289 289 290 291 292 292 292 291
293 293 295 296 297 296 296 293 291 291 290 289 288 288 288 288 287 287 290 290 290 290 290 291 291 292 291
291 290 291 292 293 294 293 293 291 290 291 289 287 287 287 286 286 289 290 289 288 287 290 290 290 291 290
288 288 288 287 288 290 291 291 291 292 289 289 287 286 286 286 286 288 289 288 287 288 290 290 290 289 289
286 285 285 285 285 285 285 287 288 288 288 287 286 286 285 285 286 286 288 288 287 287 288 288 288 288 288
286 285 284 284 284 284 284 284 285 285 285 285 285 285 285 285 285 284 285 286 286 286 286 287 287 287 287
286 285 284 283 283 283 283 283 283 284 285 285 285 285 285 284 284 284 285 285 285 285 285 285 285 285 285
285 285 284 283 283 283 283 283 283 283 283 283 284 284 283 283 283 284 284 284 284 284 284 284 285 285 285
285 284 284 284 283 283 283 283 283 283 283 282 282 281 282 283 283 283 283 282 283 283 282 282 283 284 285
286 285 284 284 283 283 283 282 282 283 283 282 281 281 282 284 282 281 282 283 282 282 282 281 282 282 282
Wind_Speed
7 10 11 13 14 15 14 15 15 14 13 12 11 10 9 11 11 10 11 10 11 9 8 10 11 10 8
10 13 12 13 15 15 16 16 17 16 14 12 11 11 11 11 10 11 11 13 10 11 10 10 10 9 7
12 14 14 15 15 16 17 18 17 16 13 11 10 11 11 11 13 13 13 11 13 12 9 10 10 9 8
12 11 12 12 15 19 19 19 17 16 14 11 11 11 11 12 12 13 12 11 12 10 9 9 11 10 10
12 9 10 12 14 15 22 21 18 17 16 14 14 13 13 12 12 12 10 11 11 10 10 10 11 11 11
11 10 14 16 15 15 16 12 6 18 18 18 16 15 15 14 13 13 11 12 12 12 11 10 11 11 10
10 10 9 8 10 15 17 15 8 7 21 15 17 17 16 15 15 14 14 12 12 12 12 12 12 11 12
6 9 10 11 10 10 13 16 11 9 16 7 13 16 16 16 15 14 13 13 13 12 13 14 13 11 12
5 6 6 6 6 7 7 13 6 7 14 6 7 10 12 13 14 13 13 13 12 12 12 14 15 12 11
5 4 4 4 2 3 6 12 4 4 12 11 9 8 3 10 15 16 15 12 12 12 12 14 15 15 14
4 4 4 3 2 2 4 8 10 7 4 16 10 11 5 3 13 17 19 16 15 13 12 13 15 17 13
5 5 5 5 4 3 4 6 8 10 8 14 6 12 9 5 4 17 21 19 17 17 17 16 16 13 14
6 6 6 6 6 5 4 4 5 6 9 12 13 9 11 7 4 8 14 20 21 20 20 20 20 19 19
8 7 7 6 6 6 5 4 4 5 6 8 9 10 10 12 10 7 14 8 20 21 19 19 20 20 20
9 9 9 8 8 8 8 6 6 4 6 8 8 9 11 12 12 15 14 15 12 14 18 18 19 20 21
12 12 12 11 10 10 11 10 10 9 8 7 8 6 8 13 19 18 15 19 19 18 18 15 18 17 19
15 15 15 14 12 13 13 13 12 12 11 10 9 6 5 3 2 13 17 16 13 15 17 16 14 8 10
Wind_Direction
265 267 257 252 245 237 232 226 234 230 230 229 233 232 224 229 217 207 197 194 183 176 160 153 148 151 157
287 274 261 265 253 241 230 224 227 225 227 227 232 230 226 215 210 211 198 178 176 163 156 157 161 162 162
278 274 265 255 243 234 229 231 226 224 223 217 219 215 208 199 198 202 198 191 195 200 190 187 178 170 162
289 276 262 252 244 240 231 225 222 219 215 210 202 202 200 202 206 214 205 199 200 201 199 203 192 176 167
298 269 256 248 238 243 235 231 222 220 212 206 204 209 199 197 207 216 212 208 213 212 209 206 198 178 173
288 271 276 271 263 254 232 205 228 227 218 213 214 216 214 215 217 224 225 225 222 215 208 194 185 182 179
285 290 289 290 280 251 233 219 211 217 206 216 222 222 221 222 224 225 226 229 228 212 197 188 193 190 192
305 298 285 282 273 271 257 231 224 214 195 207 218 218 223 226 226 225 220 219 218 206 194 190 194 197 204
335 326 317 299 267 253 225 194 208 213 204 213 206 209 219 223 219 214 207 201 203 206 204 200 201 202 206
296 309 332 346 336 260 249 216 184 216 215 201 194 192 193 223 209 201 196 204 213 218 213 209 201 202 208
287 292 309 323 326 266 233 233 236 248 245 200 204 203 197 162 200 203 205 215 211 201 194 192 196 206 212
279 287 296 300 295 283 264 242 240 245 245 211 235 207 193 177 193 211 213 216 216 211 205 201 201 209 225
284 289 285 280 275 272 266 260 249 242 220 217 226 233 216 207 195 209 202 221 221 221 220 222 224 227 233
272 279 275 261 252 249 245 238 239 236 226 224 226 229 229 226 224 223 205 207 216 219 223 229 233 238 240
263 264 260 251 243 240 240 235 235 246 247 238 236 236 239 240 237 235 229 229 228 220 225 237 242 245 246
258 256 255 248 243 239 238 235 238 244 248 248 238 239 269 263 243 238 235 237 238 236 240 246 259 253 251
255 255 254 251 242 240 238 235 238 242 245 239 224 210 228 252 261 226 228 233 229 227 232 232 249 249 238